WMT7ET LROP-EPGD

Flight info

Callsign WMT7ET
Flight time 2h 2m
Altitude 34000
Route SOKRU DCT REBLA/N0452F360 DCT KENIN DCT ORTEB DCT KOTEK DCT OVBOR N133 GRUDA/N0443F350 Z95 OSLOG
Aircraft A321/M-SDE1E2E3FGIJ1J4RWXY/LB1

Departure

Time 2026-05-01 11:29
Airport Bucharest Henri Coandă International Airport (LROP)

Arrival

Time 2026-05-01 13:31
Airport Gdańsk Lech Wałęsa Airport (EPGD)
Time Latitude Longitude Altitude Speed Heading
2026-05-01 10:42 44.57040 26.08258 321 ft 0 kts 309°
2026-05-01 11:09 44.57033 26.08269 320 ft 4 kts 309°
2026-05-01 11:09 44.57020 26.08292 320 ft 1 kts 309°
2026-05-01 11:14 44.57023 26.08283 319 ft 4 kts 294°
2026-05-01 11:14 44.56988 26.08234 320 ft 12 kts 214°
2026-05-01 11:14 44.56937 26.08132 320 ft 10 kts 264°
2026-05-01 11:14 44.56930 26.08028 320 ft 11 kts 262°
2026-05-01 11:15 44.56870 26.07982 320 ft 11 kts 175°
2026-05-01 11:15 44.56788 26.07994 320 ft 12 kts 174°
2026-05-01 11:15 44.56737 26.07919 320 ft 12 kts 253°
2026-05-01 11:15 44.56716 26.07800 319 ft 13 kts 256°
2026-05-01 11:16 44.56684 26.07680 319 ft 14 kts 224°
2026-05-01 11:16 44.56590 26.07673 319 ft 14 kts 173°
2026-05-01 11:16 44.56493 26.07690 319 ft 13 kts 167°
2026-05-01 11:16 44.56471 26.07755 319 ft 12 kts 87°
2026-05-01 11:17 44.56484 26.07914 320 ft 32 kts 83°
2026-05-01 11:17 44.56536 26.08562 323 ft 98 kts 85°
2026-05-01 11:17 44.56597 26.09454 319 ft 74 kts 83°
2026-05-01 11:17 44.56644 26.10002 322 ft 42 kts 84°
2026-05-01 11:18 44.56672 26.10368 322 ft 34 kts 84°
2026-05-01 11:18 44.56693 26.10663 320 ft 27 kts 84°
2026-05-01 11:18 44.56742 26.10769 321 ft 13 kts
2026-05-01 11:18 44.56832 26.10754 321 ft 14 kts 355°
2026-05-01 11:19 44.56926 26.10741 321 ft 14 kts 353°
2026-05-01 11:19 44.57012 26.10688 321 ft 14 kts 310°
2026-05-01 11:19 44.57059 26.10564 321 ft 15 kts 295°
2026-05-01 11:19 44.57064 26.10432 321 ft 10 kts 263°
2026-05-01 11:20 44.57061 26.10397 320 ft 0 kts 263°
2026-05-01 11:20 44.57061 26.10396 320 ft 0 kts 263°
2026-05-01 11:21 44.57060 26.10381 321 ft 5 kts 264°
2026-05-01 11:21 44.57058 26.10354 321 ft 4 kts 264°
2026-05-01 11:21 44.57055 26.10309 321 ft 5 kts 264°
2026-05-01 11:21 44.57050 26.10254 321 ft 6 kts 264°
2026-05-01 11:22 44.57045 26.10187 321 ft 7 kts 264°
2026-05-01 11:22 44.57039 26.10110 320 ft 9 kts 264°
2026-05-01 11:22 44.57034 26.10044 320 ft 1 kts 264°
2026-05-01 11:22 44.57032 26.10010 320 ft 9 kts 264°
2026-05-01 11:23 44.57028 26.09969 320 ft 2 kts 263°
2026-05-01 11:23 44.57028 26.09960 321 ft 1 kts 263°
2026-05-01 11:23 44.57024 26.09913 320 ft 9 kts 263°
2026-05-01 11:23 44.57017 26.09823 321 ft 10 kts 263°
2026-05-01 11:24 44.57009 26.09722 321 ft 11 kts 264°
2026-05-01 11:24 44.57000 26.09612 321 ft 12 kts 264°
2026-05-01 11:24 44.56981 26.09364 321 ft 14 kts 264°
2026-05-01 11:25 44.56971 26.09226 321 ft 15 kts 264°
2026-05-01 11:25 44.56947 26.08924 320 ft 16 kts 264°
2026-05-01 11:25 44.56935 26.08760 320 ft 17 kts 264°
2026-05-01 11:26 44.56920 26.08590 318 ft 18 kts 256°
2026-05-01 11:26 44.56831 26.08260 320 ft 19 kts 242°
2026-05-01 11:26 44.56772 26.08091 320 ft 20 kts 252°
2026-05-01 11:27 44.56737 26.07906 320 ft 20 kts 255°
2026-05-01 11:27 44.56702 26.07725 319 ft 18 kts 251°
2026-05-01 11:27 44.56596 26.07672 319 ft 18 kts 175°
2026-05-01 11:27 44.56479 26.07718 319 ft 17 kts 118°
2026-05-01 11:28 44.56491 26.08004 321 ft 60 kts 83°
2026-05-01 11:28 44.56560 26.08895 320 ft 125 kts 84°
2026-05-01 11:28 44.56666 26.10351 381 ft 169 kts 83°
2026-05-01 11:29 44.56885 26.13636 1734 ft 177 kts 81°
2026-05-01 11:29 44.57031 26.15448 2041 ft 198 kts 81°
2026-05-01 11:29 44.57478 26.19711 2620 ft 243 kts 69°
2026-05-01 11:30 44.58359 26.21743 3305 ft 248 kts 43°
2026-05-01 11:30 44.59813 26.23001 4079 ft 249 kts 17°
2026-05-01 11:30 44.61524 26.23376 4959 ft 252 kts 357°
2026-05-01 11:30 44.63246 26.22827 5779 ft 256 kts 343°
2026-05-01 11:31 44.64952 26.22065 6621 ft 259 kts 343°
2026-05-01 11:31 44.66674 26.21282 7393 ft 262 kts 343°
2026-05-01 11:31 44.68418 26.20483 8190 ft 265 kts 343°
2026-05-01 11:31 44.70179 26.19675 9003 ft 267 kts 343°
2026-05-01 11:32 44.71957 26.18862 9799 ft 270 kts 343°
2026-05-01 11:32 44.73754 26.18037 10544 ft 275 kts 342°
2026-05-01 11:32 44.75552 26.16835 10739 ft 299 kts 329°
2026-05-01 11:32 44.77233 26.14922 10928 ft 323 kts 315°
2026-05-01 11:33 44.78550 26.12552 11401 ft 333 kts 304°
2026-05-01 11:33 44.79758 26.09746 12042 ft 337 kts 303°
2026-05-01 11:33 44.80996 26.06920 12702 ft 341 kts 304°
2026-05-01 11:33 44.82259 26.04067 13323 ft 346 kts 304°
2026-05-01 11:34 44.83543 26.01173 13973 ft 350 kts 304°
2026-05-01 11:34 44.84758 25.98429 14524 ft 354 kts 304°
2026-05-01 11:34 44.86037 25.95449 15118 ft 358 kts 300°
2026-05-01 11:34 44.86997 25.92193 15717 ft 363 kts 289°
2026-05-01 11:35 44.87718 25.88761 16343 ft 366 kts 289°
2026-05-01 11:35 44.88443 25.85309 16968 ft 369 kts 289°
2026-05-01 11:35 44.89171 25.81837 17591 ft 371 kts 289°
2026-05-01 11:35 44.89904 25.78331 18215 ft 374 kts 289°
2026-05-01 11:36 44.90641 25.74813 18786 ft 376 kts 289°
2026-05-01 11:36 44.91387 25.71249 19336 ft 378 kts 289°
2026-05-01 11:36 44.92132 25.67681 19887 ft 381 kts 288°
2026-05-01 11:36 44.92881 25.64091 20447 ft 383 kts 288°
2026-05-01 11:37 44.93631 25.60477 20997 ft 385 kts 288°
2026-05-01 11:37 44.94384 25.56840 21527 ft 388 kts 288°
2026-05-01 11:37 44.95142 25.53174 22066 ft 390 kts 288°
2026-05-01 11:37 44.95892 25.49536 22593 ft 392 kts 288°
2026-05-01 11:38 44.96665 25.45777 23098 ft 394 kts 288°
2026-05-01 11:38 44.97433 25.42053 23630 ft 396 kts 288°
2026-05-01 11:38 44.98310 25.38363 24060 ft 398 kts 295°
2026-05-01 11:38 44.99631 25.34933 24456 ft 398 kts 305°
2026-05-01 11:39 45.01360 25.31949 24854 ft 399 kts 315°
2026-05-01 11:39 45.03495 25.29424 25232 ft 401 kts 326°
2026-05-01 11:39 45.05877 25.27341 25617 ft 403 kts 329°
2026-05-01 11:39 45.08277 25.25270 26003 ft 406 kts 328°
2026-05-01 11:40 45.10688 25.23173 26390 ft 408 kts 328°
2026-05-01 11:40 45.13106 25.21061 26779 ft 410 kts 328°
2026-05-01 11:40 45.15539 25.18939 27143 ft 412 kts 328°
2026-05-01 11:40 45.17984 25.16807 27516 ft 414 kts 328°
2026-05-01 11:41 45.20444 25.14665 27890 ft 416 kts 328°
2026-05-01 11:41 45.22915 25.12513 28242 ft 418 kts 328°
2026-05-01 11:41 45.25400 25.10345 28592 ft 420 kts 328°
2026-05-01 11:41 45.27903 25.08160 28915 ft 423 kts 328°
2026-05-01 11:42 45.30414 25.05966 29226 ft 425 kts 328°
2026-05-01 11:42 45.32941 25.03755 29537 ft 428 kts 328°
2026-05-01 11:42 45.35484 25.01526 29858 ft 430 kts 328°
2026-05-01 11:42 45.38035 24.99285 30186 ft 432 kts 328°
2026-05-01 11:43 45.40600 24.97028 30478 ft 435 kts 328°
2026-05-01 11:43 45.43178 24.94758 30753 ft 437 kts 329°
2026-05-01 11:43 45.45761 24.92487 31075 ft 437 kts 329°
2026-05-01 11:44 45.50694 24.88144 31754 ft 436 kts 329°
2026-05-01 11:44 45.53274 24.85862 31999 ft 438 kts 329°
2026-05-01 11:44 45.55871 24.83563 32286 ft 439 kts 329°
2026-05-01 11:44 45.58463 24.81269 32592 ft 439 kts 329°
2026-05-01 11:45 45.61058 24.78968 32935 ft 438 kts 329°
2026-05-01 11:45 45.63642 24.76673 33278 ft 438 kts 329°
2026-05-01 11:45 45.66227 24.74374 33619 ft 438 kts 330°
2026-05-01 11:45 45.68813 24.72075 33951 ft 437 kts 330°
2026-05-01 11:46 45.71401 24.69774 34273 ft 437 kts 330°
2026-05-01 11:46 45.73982 24.67477 34524 ft 437 kts 330°
2026-05-01 11:46 45.76569 24.65172 34748 ft 437 kts 330°
2026-05-01 11:46 45.79149 24.62869 34982 ft 438 kts 330°
2026-05-01 11:47 45.81735 24.60560 35213 ft 438 kts 330°
2026-05-01 11:47 45.84319 24.58246 35457 ft 438 kts 330°
2026-05-01 11:47 45.86896 24.55932 35693 ft 438 kts 330°
2026-05-01 11:47 45.89479 24.53611 35930 ft 438 kts 330°
2026-05-01 11:48 45.92059 24.51297 36169 ft 438 kts 330°
2026-05-01 11:48 45.94614 24.49004 36271 ft 438 kts 330°
2026-05-01 11:48 45.99805 24.44331 36270 ft 437 kts 330°
2026-05-01 11:49 46.04924 24.39706 36293 ft 437 kts 330°
2026-05-01 11:49 46.10070 24.35051 36285 ft 437 kts 330°
2026-05-01 11:50 46.15218 24.30382 36290 ft 437 kts 330°
2026-05-01 11:50 46.20367 24.25705 36296 ft 436 kts 330°
2026-05-01 11:51 46.25503 24.21021 36290 ft 437 kts 330°
2026-05-01 11:51 46.30644 24.16330 36286 ft 437 kts 330°
2026-05-01 11:52 46.35789 24.11641 36286 ft 437 kts 330°
2026-05-01 11:52 46.40926 24.06938 36286 ft 437 kts 330°
2026-05-01 11:53 46.46062 24.02218 36292 ft 437 kts 330°
2026-05-01 11:53 46.51192 23.97475 36286 ft 437 kts 330°
2026-05-01 11:54 46.56327 23.92726 36299 ft 438 kts 331°
2026-05-01 11:54 46.61471 23.87973 36303 ft 438 kts 331°
2026-05-01 11:55 46.66611 23.83215 36317 ft 438 kts 331°
2026-05-01 11:55 46.71743 23.78448 36297 ft 438 kts 331°
2026-05-01 11:56 46.76597 23.73883 36300 ft 436 kts 330°
2026-05-01 11:56 46.81532 23.68703 36301 ft 437 kts 327°
2026-05-01 11:57 46.85538 23.64184 36303 ft 437 kts 327°
2026-05-01 11:57 46.91163 23.57842 36301 ft 437 kts 327°
2026-05-01 11:58 46.95737 23.52793 36288 ft 436 kts 328°
2026-05-01 11:59 47.03017 23.44814 36298 ft 436 kts 328°
2026-05-01 11:59 47.07856 23.39464 36296 ft 436 kts 328°
2026-05-01 12:00 47.14601 23.31978 36313 ft 436 kts 328°
2026-05-01 12:01 47.21832 23.23921 36311 ft 433 kts 329°
2026-05-01 12:01 47.26633 23.18565 36309 ft 433 kts 329°
2026-05-01 12:02 47.31428 23.13196 36311 ft 433 kts 329°
2026-05-01 12:02 47.36218 23.07815 36314 ft 433 kts 329°
2026-05-01 12:03 47.40764 23.02697 36305 ft 432 kts 330°
2026-05-01 12:03 47.45524 22.97336 36320 ft 430 kts 330°
2026-05-01 12:04 47.50282 22.91975 36324 ft 430 kts 330°
2026-05-01 12:04 47.54235 22.87506 36327 ft 430 kts 330°
2026-05-01 12:05 47.58983 22.82111 36324 ft 430 kts 330°
2026-05-01 12:05 47.66115 22.74008 36326 ft 431 kts 330°
2026-05-01 12:06 47.70868 22.68588 36337 ft 431 kts 330°
2026-05-01 12:06 47.75613 22.63144 36343 ft 431 kts 330°
2026-05-01 12:07 47.80175 22.57910 36348 ft 430 kts 330°
2026-05-01 12:07 47.84917 22.52473 36346 ft 430 kts 330°
2026-05-01 12:08 47.89643 22.47027 36332 ft 429 kts 330°
2026-05-01 12:08 47.94367 22.41574 36343 ft 429 kts 330°
2026-05-01 12:09 47.99055 22.36150 36342 ft 429 kts 330°
2026-05-01 12:09 48.03761 22.30690 36353 ft 428 kts 330°
2026-05-01 12:10 48.10807 22.22477 36322 ft 427 kts 330°
2026-05-01 12:11 48.17834 22.14276 36343 ft 427 kts 330°
2026-05-01 12:11 48.22514 22.08815 36343 ft 426 kts 330°
2026-05-01 12:12 48.27183 22.03328 36341 ft 426 kts 330°
2026-05-01 12:12 48.31846 21.97829 36342 ft 426 kts 330°
2026-05-01 12:13 48.36558 21.92510 36329 ft 419 kts 337°
2026-05-01 12:13 48.41690 21.88571 36335 ft 414 kts 341°
2026-05-01 12:14 48.46712 21.84813 36336 ft 414 kts 341°
2026-05-01 12:14 48.51865 21.80921 36338 ft 414 kts 341°
2026-05-01 12:15 48.57015 21.77031 36344 ft 414 kts 341°
2026-05-01 12:15 48.62166 21.73123 36342 ft 414 kts 341°
2026-05-01 12:16 48.67308 21.69217 36340 ft 413 kts 341°
2026-05-01 12:16 48.72448 21.65313 36341 ft 413 kts 341°
2026-05-01 12:17 48.77589 21.61387 36340 ft 413 kts 341°
2026-05-01 12:17 48.82715 21.57464 36333 ft 413 kts 341°
2026-05-01 12:18 48.87850 21.53536 36335 ft 413 kts 341°
2026-05-01 12:18 48.92983 21.49603 36306 ft 413 kts 340°
2026-05-01 12:19 48.98113 21.45649 36320 ft 414 kts 340°
2026-05-01 12:19 49.03252 21.41676 36328 ft 414 kts 340°
2026-05-01 12:20 49.08380 21.37707 36329 ft 414 kts 340°
2026-05-01 12:20 49.13512 21.33737 36337 ft 414 kts 340°
2026-05-01 12:21 49.18650 21.29756 36339 ft 414 kts 340°
2026-05-01 12:21 49.23783 21.25757 36321 ft 414 kts 340°
2026-05-01 12:22 49.28911 21.21742 36333 ft 414 kts 340°
2026-05-01 12:22 49.34034 21.17728 36337 ft 414 kts 340°
2026-05-01 12:23 49.39166 21.13711 36342 ft 414 kts 340°
2026-05-01 12:23 49.44290 21.09679 36343 ft 414 kts 340°
2026-05-01 12:24 49.49409 21.05647 36345 ft 413 kts 340°
2026-05-01 12:24 49.54529 21.01599 36321 ft 414 kts 340°
2026-05-01 12:25 49.62175 20.95541 36337 ft 414 kts 340°
2026-05-01 12:26 49.67297 20.91471 36332 ft 414 kts 340°
2026-05-01 12:26 49.74977 20.85349 36338 ft 414 kts 340°
2026-05-01 12:27 49.82642 20.79225 36305 ft 414 kts 339°
2026-05-01 12:28 49.90314 20.73064 36319 ft 414 kts 339°
2026-05-01 12:29 49.97982 20.66889 36324 ft 414 kts 339°
2026-05-01 12:29 50.05654 20.60686 36326 ft 414 kts 339°
2026-05-01 12:30 50.13448 20.55086 36296 ft 408 kts 346°
2026-05-01 12:31 50.18768 20.52015 36312 ft 408 kts 346°
2026-05-01 12:31 50.24105 20.48940 36311 ft 408 kts 346°
2026-05-01 12:32 50.29432 20.45841 36319 ft 409 kts 345°
2026-05-01 12:32 50.37431 20.41165 36322 ft 409 kts 345°
2026-05-01 12:33 50.42763 20.38050 36323 ft 409 kts 345°
2026-05-01 12:33 50.48101 20.34925 36322 ft 409 kts 345°
2026-05-01 12:34 50.53428 20.31799 36306 ft 409 kts 345°
2026-05-01 12:34 50.58760 20.28655 36317 ft 409 kts 345°
2026-05-01 12:35 50.64089 20.25487 36324 ft 409 kts 345°
2026-05-01 12:35 50.69422 20.22568 36328 ft 407 kts 348°
2026-05-01 12:36 50.74833 20.19933 36333 ft 407 kts 348°
2026-05-01 12:36 50.80256 20.17290 36332 ft 407 kts 348°
2026-05-01 12:37 50.85655 20.14574 36332 ft 407 kts 347°
2026-05-01 12:37 50.91047 20.11816 36303 ft 407 kts 347°
2026-05-01 12:38 50.96445 20.09061 36313 ft 408 kts 347°
2026-05-01 12:38 51.01845 20.06311 36321 ft 408 kts 347°
2026-05-01 12:39 51.07252 20.03552 36332 ft 408 kts 347°
2026-05-01 12:39 51.12657 20.00776 36337 ft 408 kts 347°
2026-05-01 12:40 51.18056 19.98008 36339 ft 408 kts 347°
2026-05-01 12:40 51.23456 19.95218 36345 ft 408 kts 347°
2026-05-01 12:41 51.28834 19.92428 36311 ft 408 kts 347°
2026-05-01 12:41 51.34240 19.89624 36321 ft 408 kts 347°
2026-05-01 12:42 51.39632 19.86820 36332 ft 408 kts 346°
2026-05-01 12:42 51.45035 19.84005 36336 ft 408 kts 346°
2026-05-01 12:43 51.50434 19.81169 36335 ft 408 kts 346°
2026-05-01 12:43 51.55835 19.78331 36338 ft 408 kts 346°
2026-05-01 12:44 51.61239 19.75509 36336 ft 408 kts 346°
2026-05-01 12:45 51.71999 19.69855 36318 ft 408 kts 346°
2026-05-01 12:45 51.77394 19.67003 36323 ft 408 kts 346°
2026-05-01 12:46 51.82803 19.64177 36331 ft 408 kts 347°
2026-05-01 12:46 51.88239 19.61522 36333 ft 408 kts 347°
2026-05-01 12:47 51.93685 19.58904 36340 ft 408 kts 347°
2026-05-01 12:47 51.99122 19.56242 36336 ft 408 kts 347°
2026-05-01 12:48 52.04562 19.53564 36331 ft 408 kts 347°
2026-05-01 12:48 52.10002 19.50882 36337 ft 408 kts 347°
2026-05-01 12:49 52.15436 19.48175 36340 ft 408 kts 347°
2026-05-01 12:49 52.20834 19.45494 36337 ft 408 kts 347°
2026-05-01 12:50 52.26267 19.42804 36338 ft 408 kts 347°
2026-05-01 12:50 52.31701 19.40098 36339 ft 408 kts 347°
2026-05-01 12:51 52.37128 19.37384 36343 ft 408 kts 347°
2026-05-01 12:51 52.42558 19.34654 35854 ft 407 kts 347°
2026-05-01 12:52 52.45263 19.33291 35600 ft 406 kts 347°
2026-05-01 12:52 52.50637 19.30585 35106 ft 402 kts 347°
2026-05-01 12:52 52.53301 19.29241 34841 ft 400 kts 347°
2026-05-01 12:53 52.58596 19.26565 34240 ft 396 kts 347°
2026-05-01 12:53 52.60335 19.25685 33896 ft 394 kts 347°
2026-05-01 12:53 52.62941 19.24367 33442 ft 390 kts 347°
2026-05-01 12:54 52.65520 19.23060 32976 ft 386 kts 347°
2026-05-01 12:54 52.70610 19.20462 32046 ft 379 kts 347°
2026-05-01 12:54 52.73121 19.19180 31598 ft 377 kts 348°
2026-05-01 12:55 52.78090 19.16644 30682 ft 372 kts 348°
2026-05-01 12:55 52.80371 19.15477 30245 ft 370 kts 348°
2026-05-01 12:55 52.82827 19.14218 29795 ft 367 kts 348°
2026-05-01 12:56 52.85251 19.12971 29350 ft 363 kts 348°
2026-05-01 12:56 52.87657 19.11736 28934 ft 360 kts 348°
2026-05-01 12:56 52.90039 19.10516 28522 ft 357 kts 348°
2026-05-01 12:56 52.92405 19.09301 28111 ft 355 kts 348°
2026-05-01 12:57 52.94754 19.08092 27719 ft 352 kts 348°
2026-05-01 12:57 52.99390 19.05703 26940 ft 346 kts 348°
2026-05-01 12:57 53.01678 19.04524 26561 ft 343 kts 348°
2026-05-01 12:58 53.03946 19.03350 26182 ft 340 kts 348°
2026-05-01 12:58 53.06191 19.02185 25797 ft 337 kts 348°
2026-05-01 12:58 53.08418 19.01030 25416 ft 334 kts 348°
2026-05-01 12:59 53.12828 18.98740 24635 ft 330 kts 348°
2026-05-01 12:59 53.15011 18.97602 24237 ft 328 kts 348°
2026-05-01 12:59 53.19321 18.95359 23397 ft 324 kts 348°
2026-05-01 13:00 53.23585 18.93138 22582 ft 318 kts 348°
2026-05-01 13:00 53.25687 18.92039 22180 ft 315 kts 348°
2026-05-01 13:01 53.29827 18.89873 21402 ft 309 kts 348°
2026-05-01 13:01 53.31900 18.88794 21124 ft 319 kts 348°
2026-05-01 13:01 53.36187 18.86558 20133 ft 321 kts 348°
2026-05-01 13:02 53.38310 18.85436 19713 ft 319 kts 348°
2026-05-01 13:07 53.79168 18.71416 12000 ft 281 kts 322°
2026-05-01 13:07 53.80625 18.69201 11810 ft 281 kts 322°
2026-05-01 13:07 53.82075 18.66997 11625 ft 280 kts 322°
2026-05-01 13:08 53.83521 18.64797 11438 ft 279 kts 322°
2026-05-01 13:08 53.84963 18.62606 11243 ft 278 kts 322°
2026-05-01 13:08 53.86405 18.60413 11063 ft 278 kts 322°
2026-05-01 13:08 53.87844 18.58222 10884 ft 278 kts 322°
2026-05-01 13:09 53.89279 18.56032 10698 ft 277 kts 322°
2026-05-01 13:09 53.90711 18.53842 10512 ft 277 kts 322°
2026-05-01 13:09 53.92138 18.51661 10330 ft 276 kts 322°
2026-05-01 13:09 53.93563 18.49481 10143 ft 276 kts 322°
2026-05-01 13:10 53.94985 18.47299 9939 ft 275 kts 321°
2026-05-01 13:10 53.96403 18.45120 9762 ft 275 kts 321°
2026-05-01 13:10 53.97829 18.42967 9584 ft 273 kts 325°
2026-05-01 13:10 53.99428 18.41299 9402 ft 269 kts 336°
2026-05-01 13:11 54.01107 18.39901 9227 ft 269 kts 336°
2026-05-01 13:11 54.02786 18.38500 9052 ft 268 kts 336°
2026-05-01 13:11 54.04457 18.37100 8864 ft 267 kts 336°
2026-05-01 13:11 54.06122 18.35700 8695 ft 267 kts 336°
2026-05-01 13:12 54.07785 18.34301 8524 ft 266 kts 336°
2026-05-01 13:12 54.09443 18.32905 8339 ft 266 kts 336°
2026-05-01 13:12 54.11101 18.31505 8167 ft 265 kts 335°
2026-05-01 13:12 54.12753 18.30111 7990 ft 265 kts 335°
2026-05-01 13:13 54.14402 18.28722 7818 ft 264 kts 335°
2026-05-01 13:13 54.16033 18.27345 7653 ft 264 kts 335°
2026-05-01 13:13 54.17674 18.25954 7485 ft 263 kts 335°
2026-05-01 13:13 54.19309 18.24568 7309 ft 262 kts 335°
2026-05-01 13:14 54.20921 18.23203 7247 ft 262 kts 335°
2026-05-01 13:14 54.22551 18.21819 7179 ft 257 kts 335°
2026-05-01 13:14 54.24092 18.20504 7044 ft 240 kts 335°
2026-05-01 13:14 54.25574 18.19418 6737 ft 226 kts 348°
2026-05-01 13:15 54.27118 18.19222 6409 ft 223 kts
2026-05-01 13:15 54.28607 18.19949 6182 ft 224 kts 22°
2026-05-01 13:15 54.30042 18.20989 6022 ft 224 kts 21°
2026-05-01 13:15 54.31477 18.22016 5883 ft 224 kts 21°
2026-05-01 13:16 54.32974 18.22652 5742 ft 222 kts 358°
2026-05-01 13:16 54.34420 18.21827 5614 ft 224 kts 325°
2026-05-01 13:16 54.35362 18.19718 5461 ft 228 kts 297°
2026-05-01 13:17 54.37671 18.12786 5015 ft 222 kts 332°
2026-05-01 13:17 54.39149 18.12162 4762 ft 222 kts
2026-05-01 13:18 54.42077 18.13964 4104 ft 226 kts 19°
2026-05-01 13:18 54.43505 18.15115 3768 ft 230 kts 32°
2026-05-01 13:18 54.44410 18.17333 3491 ft 231 kts 75°
2026-05-01 13:18 54.44299 18.19998 3314 ft 222 kts 110°
2026-05-01 13:19 54.43732 18.22355 3146 ft 204 kts 113°
2026-05-01 13:19 54.43202 18.24510 2952 ft 189 kts 113°
2026-05-01 13:19 54.42248 18.28395 2676 ft 168 kts 114°
2026-05-01 13:20 54.41796 18.30225 2553 ft 167 kts 113°
2026-05-01 13:20 54.41349 18.32038 2405 ft 166 kts 114°
2026-05-01 13:20 54.40897 18.33866 2110 ft 165 kts 114°
2026-05-01 13:21 54.40008 18.37488 1605 ft 163 kts 112°
2026-05-01 13:21 54.39562 18.39289 1314 ft 165 kts 113°
2026-05-01 13:21 54.39112 18.41076 1068 ft 160 kts 112°
2026-05-01 13:21 54.38691 18.42798 817 ft 152 kts 109°
2026-05-01 13:22 54.38289 18.44442 587 ft 146 kts 108°
2026-05-01 13:22 54.37907 18.46028 461 ft 134 kts 110°
2026-05-01 13:22 54.37536 18.47497 562 ft 151 kts 111°
2026-05-01 13:22 54.37049 18.49260 1126 ft 176 kts 113°
2026-05-01 13:23 54.36523 18.51287 1789 ft 194 kts 113°
2026-05-01 13:23 54.36030 18.53328 2033 ft 214 kts 112°
2026-05-01 13:23 54.35276 18.55693 2249 ft 234 kts 134°
2026-05-01 13:23 54.33874 18.57113 2790 ft 238 kts 167°
2026-05-01 13:24 54.32238 18.57165 2966 ft 235 kts 198°
2026-05-01 13:24 54.30849 18.55827 3022 ft 229 kts 224°
2026-05-01 13:24 54.29944 18.53664 3012 ft 224 kts 253°
2026-05-01 13:25 54.30331 18.48565 3011 ft 220 kts 297°
2026-05-01 13:25 54.31093 18.46278 3018 ft 221 kts 302°
2026-05-01 13:25 54.31875 18.44074 3013 ft 220 kts 302°
2026-05-01 13:25 54.32684 18.41828 3011 ft 221 kts 302°
2026-05-01 13:26 54.33437 18.39533 3010 ft 221 kts 297°
2026-05-01 13:26 54.34123 18.37211 2948 ft 214 kts 297°
2026-05-01 13:26 54.34771 18.34969 2762 ft 206 kts 297°
2026-05-01 13:26 54.35389 18.32849 2643 ft 193 kts 297°
2026-05-01 13:27 54.35981 18.30803 2551 ft 190 kts 297°
2026-05-01 13:27 54.36569 18.28799 2508 ft 187 kts 297°
2026-05-01 13:27 54.38129 18.25550 2505 ft 167 kts 334°
2026-05-01 13:28 54.40539 18.25870 2527 ft 198 kts 16°
2026-05-01 13:28 54.41606 18.27243 2485 ft 186 kts 55°
2026-05-01 13:29 54.41545 18.31202 2509 ft 167 kts 115°
2026-05-01 13:29 54.40643 18.34880 2054 ft 166 kts 111°
2026-05-01 13:30 54.38879 18.42037 929 ft 156 kts 110°
2026-05-01 13:31 54.38081 18.45311 486 ft 145 kts 109°
2026-05-01 13:31 54.37470 18.47789 468 ft 30 kts 113°
2026-05-01 13:32 54.37327 18.48364 480 ft 22 kts 113°
2026-05-01 13:33 54.37459 18.48550 486 ft 15 kts 292°
2026-05-01 13:33 54.37568 18.48107 473 ft 23 kts 292°
2026-05-01 13:34 54.37696 18.47590 462 ft 25 kts 293°
2026-05-01 13:34 54.37807 18.47141 457 ft 18 kts 294°
2026-05-01 13:35 54.37906 18.46749 459 ft 17 kts 294°
2026-05-01 13:35 54.37939 18.46613 457 ft 9 kts 294°
2026-05-01 13:35 54.38038 18.46619 460 ft 8 kts 18°
2026-05-01 13:36 54.38080 18.46603 460 ft 6 kts 353°
2026-05-01 13:36 54.38109 18.46615 460 ft 1 kts 21°
2026-05-01 13:36 54.38112 18.46617 460 ft 0 kts 21°